This is the latest recevied weather packets stored in our database for station/object EA4URC-13. If no packets are shown the sender has not sent any weather packets the latest 10 day(s).
| Time | Temp. | Humidity | Pressure | Rain* | Wind** | Luminosity | Snow |
|---|---|---|---|---|---|---|---|
| 1787779056 | 24.44° C | 23% | 1018.8 hPa | - | - | - | - |
| 1787778155 | 25° C | 22% | 1018.9 hPa | - | - | - | - |
| 1787777255 | 25° C | 21% | 1018.9 hPa | - | - | - | - |
| 1787776355 | 25.56° C | 20% | 1018.9 hPa | - | - | - | - |
| 1787775455 | 26.67° C | 20% | 1018.9 hPa | - | - | - | - |
| 1787774555 | 26.67° C | 19% | 1018.8 hPa | - | - | - | - |
| 1787773655 | 26.67° C | 18% | 1018.5 hPa | - | - | - | - |
| 1787772755 | 26.67° C | 18% | 1018.2 hPa | - | - | - | - |
| 1787771855 | 27.22° C | 18% | 1018.1 hPa | - | - | - | - |
| 1787770955 | 27.78° C | 17% | 1018 hPa | - | - | - | - |
| 1787770055 | 27.78° C | 16% | 1017.8 hPa | - | - | - | - |
| 1787769156 | 28.33° C | 14% | 1017.9 hPa | - | - | - | - |
| 1787768256 | 28.33° C | 14% | 1017.7 hPa | - | - | - | - |
| 1787767356 | 28.33° C | 15% | 1017.7 hPa | - | - | - | - |
| 1787766456 | 28.89° C | 14% | 1017.9 hPa | - | - | - | - |
| 1787765556 | 30° C | 15% | 1018 hPa | - | - | - | - |
| 1787764655 | 30.56° C | 15% | 1018 hPa | - | - | - | - |
| 1787763755 | 30° C | 16% | 1017.8 hPa | - | - | - | - |
| 1787762855 | 30° C | 15% | 1017.7 hPa | - | - | - | - |
| 1787761955 | 29.44° C | 17% | 1017.6 hPa | - | - | - | - |
| 1787761055 | 31.67° C | 16% | 1017.6 hPa | - | - | - | - |
| 1787760155 | 31.67° C | 16% | 1017.7 hPa | - | - | - | - |
| 1787759255 | 31.67° C | 18% | 1017.7 hPa | - | - | - | - |
| 1787758355 | 31.67° C | 17% | 1017.7 hPa | - | - | - | - |
| 1787757455 | 31.11° C | 17% | 1017.5 hPa | - | - | - | - |
* Rain since midnight (hover to see other rain measurements)
** Current wind speed in m/s (hover to see current wind gust speed)